Satellite: AUBIESAT Catalog number: 37854 Epoch time: 12046.89569174 Element set: 100 Inclination: 101.7157 deg RA of node: 031.6095 deg Eccentricity: 0.0251320 Arg of perigee: 338.7205 deg Mean anomaly: 020.3707 deg Mean motion: 14.79143175 rev/day Decay rate: 7.039e-05 rev/day^2 Epoch rev: 1630 Checksum: 275
Satellite: HRBE Catalog number: 37855 Epoch time: 12047.91412398 Element set: 100 Inclination: 101.7174 deg RA of node: 033.0814 deg Eccentricity: 0.0252259 Arg of perigee: 335.8281 deg Mean anomaly: 023.1254 deg Mean motion: 14.79067853 rev/day Decay rate: 7.136e-05 rev/day^2 Epoch rev: 1645 Checksum: 283
Satellite: RS-39 Catalog number: 38051 Epoch time: 12047.74907715 Element set: 69 Inclination: 051.6519 deg RA of node: 017.5897 deg Eccentricity: 0.0011502 Arg of perigee: 328.6140 deg Mean anomaly: 093.7832 deg Mean motion: 15.22273063 rev/day Decay rate: 7.675e-05 rev/day^2 Epoch rev: 346 Checksum: 305
/EX